Theta_e
335 329 326 325 320 319 323 328 331 334 336 337 338 338 338 337 335 331 329 330 330 330 329 329 328 326 325 324 323 322 322 322 322 321 322 323 326 328 329 329 328 325
335 335 330 325 321 320 321 323 325 326 328 332 335 336 337 337 336 333 331 332 333 332 331 330 329 328 327 326 326 325 323 322 322 321 323 324 326 327 327 327 326 323
332 334 334 329 322 320 319 318 320 320 322 327 332 334 334 334 334 333 331 333 335 335 333 332 331 330 329 328 328 328 326 325 323 322 322 323 324 325 324 325 325 322
330 332 333 333 325 319 317 316 317 318 319 324 330 334 335 334 333 333 330 329 333 336 335 333 332 331 331 330 330 330 329 327 326 325 324 324 323 323 323 324 324 321
328 329 331 333 330 320 316 316 316 316 318 321 327 333 336 335 335 334 331 328 331 336 336 334 334 333 333 332 332 331 330 329 328 326 325 325 323 323 324 324 323 321
323 323 327 331 332 325 316 314 315 314 316 319 325 331 335 336 335 334 333 331 331 333 334 334 334 334 334 333 332 332 331 330 328 326 325 325 325 323 323 324 322 320
319 321 324 328 331 329 320 313 314 315 315 318 323 328 333 336 336 335 334 334 332 330 330 331 332 333 334 334 332 331 330 329 329 327 325 326 326 324 322 322 321 320
317 322 325 326 328 328 324 316 314 315 315 318 322 326 331 335 337 336 335 334 333 332 330 330 330 331 333 334 332 329 328 327 327 326 326 327 327 325 321 320 320 319
318 322 325 326 326 325 324 320 315 315 316 319 321 324 329 334 337 336 335 334 335 335 333 331 329 330 332 333 332 330 327 327 327 326 326 326 326 324 321 320 319 319
320 323 325 328 327 323 321 320 318 316 317 320 322 324 328 332 335 337 336 335 335 335 334 333 330 330 332 333 333 331 330 329 329 328 327 326 325 323 322 321 319 318
321 324 326 328 328 324 320 320 320 318 317 320 324 325 327 330 333 336 336 335 334 334 334 334 333 331 331 332 332 332 331 330 330 329 328 326 326 325 324 322 320 318
321 324 326 326 327 324 320 319 320 319 317 320 323 326 327 327 330 334 336 336 335 334 333 334 334 333 331 331 331 331 332 331 331 330 329 327 327 326 325 324 321 319
320 322 323 324 325 324 321 319 319 318 317 318 322 325 327 327 328 330 333 335 336 335 335 335 335 335 333 332 331 331 332 332 331 331 331 330 328 327 326 325 322 320
318 320 320 321 323 325 323 320 319 318 317 318 320 323 326 327 328 328 330 334 336 336 336 336 336 336 336 334 332 332 332 332 333 333 333 332 331 328 327 326 324 320
317 318 318 319 323 325 324 322 320 318 317 318 319 321 324 327 328 329 330 332 334 335 336 336 337 337 337 336 334 333 333 333 333 334 335 334 333 331 330 329 327 321
318 318 318 318 320 323 324 324 321 319 318 319 320 322 324 327 328 329 330 331 332 333 333 333 334 335 335 335 335 335 335 334 335 335 336 335 335 334 332 332 330 324
319 319 318 317 317 320 323 324 323 321 319 319 321 323 325 326 327 329 330 331 332 333 333 333 332 331 331 331 332 333 334 335 336 336 336 336 336 335 334 333 332 328
320 320 319 317 317 319 321 323 323 322 320 320 321 323 324 325 326 328 329 330 332 333 333 334 333 331 330 329 329 330 331 332 334 336 337 337 337 336 335 334 333 331
323 323 320 318 317 318 320 322 323 322 320 321 321 321 322 323 325 327 329 329 331 332 333 333 333 332 331 330 329 329 329 329 332 334 335 336 337 337 336 335 334 333
324 324 322 319 318 319 321 322 322 321 321 322 323 322 322 322 324 326 328 328 328 330 331 332 332 333 333 332 330 330 329 329 330 332 333 335 336 336 335 335 336 335
325 326 324 323 322 322 323 323 322 322 323 324 326 326 324 322 323 324 326 326 325 325 327 328 329 331 333 334 332 331 331 331 331 331 331 333 334 335 334 335 336 335
323 325 325 325 324 324 325 325 325 324 324 325 327 327 327 325 324 324 325 326 324 322 323 326 327 328 330 333 334 333 333 333 334 333 332 331 333 334 334 334 335 334
323 324 325 325 326 326 327 326 325 324 323 324 326 328 328 327 325 324 326 327 325 323 323 324 326 327 328 331 334 334 334 334 334 334 334 333 333 334 334 335 335 334
323 325 326 326 327 326 324 321 320 321 322 323 325 326 326 325 324 325 327 327 326 325 323 324 326 326 327 329 333 334 335 334 333 333 333 333 333 335 335 335 335 334
323 323 324 324 324 322 319 318 319 321 324 324 324 324 324 325 325 325 327 327 327 325 324 324 325 325 325 328 331 334 335 334 334 333 331 331 333 334 336 336 335 333
322 323 323 322 321 320 319 320 321 323 324 323 322 322 323 325 326 326 325 325 326 325 324 324 324 324 324 325 329 333 334 334 334 333 331 331 332 334 335 336 335 333
Wind_Speed
44 44 42 38 36 33 30 30 30 31 34 37 39 40 39 38 36 35 37 38 36 35 35 34 33 33 33 33 33 33 32 31 29 29 29 29 29 28 26 24 24 25
39 42 44 41 37 34 30 28 27 26 28 32 36 37 36 35 34 33 34 37 36 35 35 34 34 34 35 35 35 34 33 32 30 30 30 29 29 28 26 25 24 25
40 35 40 45 40 34 30 26 25 25 26 29 33 36 38 37 36 33 35 37 36 36 35 34 35 35 36 36 37 36 34 33 31 30 30 30 30 28 27 25 25 25
47 36 34 41 42 34 29 27 25 25 27 29 32 36 40 40 38 36 36 38 37 36 36 36 36 37 37 37 37 37 36 34 32 31 31 31 30 29 28 26 26 26
48 44 37 37 40 36 30 27 26 25 27 29 31 35 39 41 41 38 37 39 39 37 37 37 37 37 37 37 38 38 37 36 33 31 32 32 30 30 30 28 27 27
43 47 44 40 40 39 32 27 26 26 27 28 30 34 38 41 43 41 38 38 38 37 36 37 38 38 37 37 37 38 38 37 35 32 32 32 30 30 31 30 28 28
38 45 48 44 42 41 34 28 27 28 28 27 29 32 35 41 44 43 40 39 39 38 36 35 36 36 37 37 36 36 37 37 36 34 33 31 30 29 30 31 30 29
36 45 49 45 42 42 38 31 28 29 30 28 29 30 33 39 44 44 42 41 40 39 37 35 36 35 35 35 34 34 35 36 35 34 33 32 31 31 31 31 31 31
41 48 48 44 42 41 39 35 31 30 31 29 28 28 31 36 41 42 42 41 41 40 38 37 37 35 34 34 33 32 33 33 33 33 34 33 33 32 32 32 32 33
47 50 48 45 43 40 39 37 34 32 31 30 29 28 29 32 36 40 41 40 39 40 40 39 38 35 33 33 32 31 31 31 31 32 34 34 34 34 33 32 33 34
46 49 49 46 43 40 39 38 37 34 32 31 30 29 28 29 33 38 40 41 40 40 40 40 39 36 34 32 32 31 30 30 31 31 32 33 34 34 34 33 32 34
44 47 50 48 44 41 39 38 38 36 32 31 31 29 28 27 29 34 38 41 41 41 40 40 39 37 34 32 32 31 31 30 30 31 31 32 34 34 33 33 31 32
43 47 50 48 45 41 39 39 38 36 33 31 30 30 28 27 27 30 34 37 39 40 40 40 40 40 37 34 33 32 32 30 30 30 30 30 31 33 33 32 30 31
43 47 48 46 44 41 40 39 38 37 33 30 30 29 28 27 26 27 30 34 38 41 42 41 41 41 40 37 35 34 33 31 30 29 29 28 28 30 31 30 29 30
41 44 44 43 42 41 41 40 39 37 33 31 30 28 27 26 26 26 28 31 34 38 41 41 40 38 37 36 35 35 33 31 30 29 29 28 27 28 29 30 30 30
39 41 42 42 40 40 41 40 39 37 34 31 30 28 27 26 26 26 27 27 28 30 31 34 35 34 34 33 33 34 33 31 30 29 29 28 28 28 29 30 31 31
37 39 40 40 40 41 41 40 39 38 34 32 31 29 27 26 25 25 24 24 25 25 25 27 29 30 32 32 32 32 31 31 31 30 29 28 28 28 29 30 31 31
36 38 39 40 40 40 40 39 38 37 34 32 31 29 27 26 25 23 22 22 23 24 24 25 26 28 30 31 31 32 31 31 31 31 30 29 28 28 29 30 31 31
35 36 38 39 40 39 38 37 37 36 34 32 31 29 27 26 24 22 22 21 21 22 23 23 25 28 30 30 30 32 33 33 32 31 30 29 27 26 27 28 29 30
34 36 37 38 39 37 36 36 36 35 34 32 31 30 28 26 24 22 22 21 20 21 20 21 23 26 28 30 31 33 34 34 33 32 30 28 27 25 25 26 27 28
34 34 35 35 35 35 35 35 35 33 31 30 30 30 28 25 23 23 22 21 20 20 20 20 22 24 26 29 32 33 34 34 34 34 31 30 28 26 25 25 25 25
31 31 31 31 30 32 33 32 30 29 28 28 29 29 27 25 24 24 23 22 21 20 21 22 23 24 26 29 32 33 35 37 37 35 33 31 29 28 27 25 24 24
25 25 26 27 28 30 30 28 27 27 28 27 27 27 27 26 25 25 25 24 23 22 22 24 24 24 25 29 32 34 36 38 38 37 34 31 30 29 28 26 25 25
21 22 24 25 26 25 24 23 23 24 24 24 24 25 25 25 26 26 26 26 25 23 23 24 25 24 24 27 31 35 37 38 38 37 35 33 31 30 28 27 27 26
18 19 21 21 20 20 19 20 21 21 21 22 23 24 24 25 26 27 27 27 26 25 25 26 26 25 25 26 29 32 36 38 38 37 36 35 32 30 29 29 28 28
15 17 17 17 16 16 17 18 20 21 22 23 23 24 25 27 28 28 29 29 29 27 27 28 28 27 26 27 28 31 34 38 38 38 37 36 34 32 31 31 31 30
Wind_Direction
233 235 238 239 242 245 243 241 240 238 236 233 231 229 228 228 227 226 225 223 223 224 225 226 227 226 227 229 232 234 233 234 235 236 238 242 248 252 255 258 262 263
239 237 236 238 240 240 237 236 238 241 241 239 236 231 228 229 228 228 230 226 224 225 227 229 230 229 229 230 232 234 235 235 235 236 239 243 247 250 252 255 259 261
242 243 238 237 238 236 235 237 239 243 244 242 240 234 229 228 226 225 230 229 224 225 229 231 232 231 231 232 234 236 238 239 238 239 241 244 247 248 249 252 256 256
237 246 245 239 237 235 236 240 240 242 243 241 239 235 230 228 224 222 227 229 226 226 228 232 233 232 233 234 235 237 239 241 242 242 244 245 247 248 248 249 252 251
233 242 249 243 237 234 234 239 241 242 243 240 238 235 232 228 224 222 222 225 227 228 228 231 233 234 234 235 236 237 239 240 241 242 245 246 247 248 247 246 247 247
232 239 244 242 239 234 233 237 241 243 243 240 238 235 232 229 227 225 222 221 224 228 229 231 233 234 235 236 237 238 239 239 239 240 243 244 245 247 249 247 244 245
231 234 235 237 238 235 233 236 239 242 242 240 238 236 232 230 228 228 228 223 221 225 229 232 234 235 235 236 237 238 238 238 239 240 241 241 243 246 248 248 246 244
223 228 230 233 236 233 232 233 237 242 242 238 237 236 233 230 229 230 232 228 224 224 230 235 237 237 237 237 236 236 237 238 239 239 239 239 241 243 245 247 247 245
221 229 230 234 236 233 231 232 236 242 241 238 237 236 234 232 231 232 233 231 228 227 231 235 237 237 238 238 236 235 236 237 238 239 239 238 239 241 243 245 246 244
224 229 230 235 238 236 233 232 236 241 241 239 236 234 234 233 232 233 234 233 231 230 231 234 235 234 235 237 236 235 235 237 239 240 240 238 238 241 244 245 245 244
227 227 228 234 237 236 235 234 235 240 242 240 236 233 233 233 232 233 233 234 234 232 233 236 236 234 235 237 236 236 236 238 239 241 242 241 241 242 245 247 245 244
231 228 229 233 234 234 235 235 236 239 241 241 238 234 233 233 233 233 234 235 236 235 234 236 236 236 237 240 241 239 238 239 240 242 243 243 244 244 245 247 246 245
232 229 228 230 231 232 234 236 236 238 241 242 241 237 234 234 234 235 235 237 238 238 238 238 238 237 238 241 245 244 242 241 242 244 245 245 246 246 246 247 245 245
231 228 227 228 229 230 233 236 237 238 241 243 242 239 237 236 237 237 237 237 237 237 236 235 236 237 237 241 247 249 246 245 245 248 251 250 250 249 248 247 245 244
230 227 226 227 228 229 232 235 236 238 240 242 242 241 239 239 239 240 239 239 238 237 235 233 232 233 234 237 244 249 249 248 249 252 255 256 256 255 253 251 248 244
229 227 227 227 227 228 232 234 236 237 239 240 241 240 240 240 240 240 241 242 243 243 241 239 238 239 239 239 243 249 251 251 251 255 261 262 261 261 258 255 251 246
227 226 227 226 226 228 231 235 236 237 237 239 240 240 239 239 240 241 242 243 243 242 241 240 239 241 243 243 243 246 251 253 254 257 263 266 267 266 263 259 255 250
225 224 224 224 224 227 231 234 237 237 236 238 241 242 241 240 240 240 241 243 242 240 239 236 234 233 235 235 236 238 243 249 253 257 261 265 268 270 269 265 260 255
221 221 222 222 223 226 230 234 238 238 236 236 239 243 245 244 243 240 241 243 242 239 237 233 231 231 231 231 231 232 235 240 245 250 256 260 265 269 271 269 266 261
218 219 221 222 223 226 230 233 237 238 238 238 240 243 246 248 247 242 241 245 246 243 238 231 228 230 230 230 231 232 235 238 241 245 249 253 257 261 265 265 265 264
217 219 221 223 225 229 231 233 236 239 241 242 243 245 247 249 249 246 242 244 248 248 243 235 230 229 228 228 231 234 236 239 242 244 245 248 249 250 252 256 259 259
218 220 223 225 228 231 232 233 236 239 242 244 244 244 245 247 248 246 242 242 246 247 245 241 238 233 229 227 228 232 236 238 240 243 244 246 247 244 243 246 250 251
217 220 224 226 228 229 230 231 234 237 240 241 241 242 244 246 248 246 242 242 245 245 243 242 242 239 234 230 227 229 234 236 238 239 242 244 246 245 243 242 244 246
217 221 225 227 227 227 227 230 234 236 239 241 242 244 246 248 249 246 243 243 246 245 242 242 243 241 238 235 231 228 231 234 237 238 240 242 243 244 244 242 242 244
221 224 225 225 226 226 228 233 236 239 241 241 243 245 246 247 247 244 242 243 244 243 240 241 242 241 239 238 235 232 231 233 236 237 238 238 238 240 241 241 241 243
219 224 226 229 232 235 237 240 242 245 245 245 246 247 246 245 243 241 242 244 243 240 237 238 240 241 239 237 235 233 232 233 236 237 236 236 236 237 238 239 240 242